Regional Weather Roundup
Issued by NWS

Home | Current Version | Previous Version | Graphics & Text | Print | Product List | Glossary On
Versions: 1 2 3 4 5 6 7 8 9 10 11 12 13 14 15 16 17 18 19 20 21 22 23 24 25 26 27 28 29 30 31 32 33 34 35 36 37 38 39 40 41 42 43 44 45 46 47 48 49 50
000
ASUS43 KTOP 011959
RWRKS

WEATHER ROUNDUP FOR KANSAS
NATIONAL WEATHER SERVICE GOODLAND KS
300 PM CDT FRI AUG 01 2014

NOTE:  "FAIR" INDICATES FEW OR NO CLOUDS BELOW 12,000 FEET WITH NO
SIGNIFICANT WEATHER AND/OR OBSTRUCTIONS TO VISIBILITY.

KSZ001>006-013>018-027>032-041>047-012100-
NORTHWEST KANSAS

CITY           SKY/WX    TMP DP  RH WIND       PRES   REMARKS
GOODLAND       MOSUNNY   88  45  22 VRB3      30.17F
HAYS           SUNNY     90  52  27 E3        30.09F
HILL CITY      MOSUNNY   92  49  22 NE9G20    30.10F
RUSSELL        MOSUNNY   90  52  27 N15G21    30.07F
$$

KSZ061>065-074>080-084>089-012100-
SOUTHWEST KANSAS

CITY           SKY/WX    TMP DP  RH WIND       PRES   REMARKS
DODGE CITY     SUNNY     88  53  30 N9        30.13F
ELKHART          N/A     86  52  31 E5          N/A
GARDEN CITY    MOSUNNY   86  53  32 VRB3      30.14F
GREAT BEND       N/A     90  54  29 N8G17     30.07F
LIBERAL        SUNNY     86  54  32 NW7       30.16F
$$

KSZ066>073-081>083-090>101-012100-
SOUTHEAST KANSAS

CITY           SKY/WX    TMP DP  RH WIND       PRES   REMARKS
CHANUTE        CLOUDY    82  62  50 S6        30.07F
COFFEYVILLE    MOSUNNY   83  64  52 S10       30.07S
HUTCHINSON     MOSUNNY   91  56  30 VRB6      30.05F
NEWTON         MOSUNNY   90  54  29 N10G20    30.08F
PARSONS        CLOUDY    84  64  50 VRB3      30.08F
WICHITA INTL   MOSUNNY   87  58  37 VRB3      30.04F
WICHITA JABRA  SUNNY     88  59  37 VRB5      30.04F
WICHITA MCCONL SUNNY     88  59  37 S14       30.04F
WINFIELD       MOSUNNY   85  66  53 S10       30.08S
$$

KSZ007>012-019>026-033>040-048>060-102>105-012100-
NORTHEAST KANSAS

CITY           SKY/WX    TMP DP  RH WIND       PRES   REMARKS
CONCORDIA      SUNNY     85  51  31 N17G28    30.06F
EMPORIA        MOSUNNY   88  57  34 SW7G16    30.04F
LAWRENCE       MOSUNNY   88  61  40 SE10      30.05S
MANHATTAN      MOSUNNY   90  55  30 CALM      30.02S
OLATHE IND     PTSUNNY   84  59  42 S7        30.07S
OLATHE EXE     PTSUNNY   82  60  47 S10       30.06F
SALINA         SUNNY     94  48  20 N17G30    30.04F
TOPEKA BILLARD MOSUNNY   87  59  38 SW9       30.04F
TOPEKA FORBES  MOSUNNY   86  58  38 S9        30.04F
$$


USA.gov is the U.S. government's official web portal to all federal, state and local government web resources and services.